Location: Newark
(25.6108°S, 54.5803°W)
Time: 10:16:15
(UTC+00:00)

deb Explorer IX - Pass Details

Date: 04 November 2020
Orbit: 538 x 1104 km, 38.8° (Epoch: 23 November)

Event Time Altitude Azimuth Distance (km) Brightness Sun altitude
Rises 14:55:51 0° 336° (NNW) 3,903 ? 78.3°
Reaches altitude 10° 14:59:08 10° 347° (NNW) 2,942 ? 78.7°
Maximum altitude 15:04:57 26° 41° (NE) 1,945 ? 79.3°
Drops below altitude 10° 15:10:28 10° 94° (E) 2,782 ? 79.7°
Sets 15:13:27 0° 106° (ESE) 3,653 ? 79.8°
